Find Starlink 11236

NORAD ID: 61062 Int'l Des: 2024-164 Owner: SPXS Country: US Constellation: starlink operational
LEOCIRCULAR

Current View

Loading 3D Globe...

About Starlink 11236

Starlink 11236 (NORAD 61062) is a starlink constellation satellite (v2 mini d2c) launched Sep 13, 2024 by SPXS of US. It operates in LEO, CIRCULAR orbit with a mass of 960.00 kg.

About Starlink 11236

Description loading...

Upcoming Passes

Passes for default location (London). Set your location on the main map for personalized predictions.

Altitude History

Loading altitude history...

Two-Line Element Set

1 61062U 24164N 26171.36134506 -.00000458 00000-0 10751-5 0 9994
2 61062 53.1599 165.2022 0001168 85.9367 274.1784 15.69701203101549
Epoch: Jun 20, 2026 • Age: 47 hours

Current Status

Altitude 375.3 km
Velocity 7.68 km/s
Sub-Earth Point -44.08°S, 1.74°W
Launch Date Sep 13, 2024
Age 1.7 years
Type internet

Technical Details

Classification Payload
Mass 960.00 kg
Dry Mass 910.00 kg
Total Mass 960.00 kg
Length 0.30 m
Diameter 4.10 m
Span 29.00 m
Shape Box + pan
Manufacturer SPXS
Bus Type Starlink V2MD
Phase Status In Orbit
Owner/State SPXS/US

Most Searched